Home   Weather   Osnabrück   Past weeks

Flag for Germany Past Weather in Osnabrück, Lower Saxony, Germany — Yesterday and Last 2 Weeks

Now
50 °F

Scattered clouds.


Feels Like: 45 °F
Forecast: 43 / 50 °F
Wind: 15 mph from West

Location: Muenster / Osnabrueck

Current Time: Feb 21, 2017 at 3:43:59 pm

Latest Report: Feb 21, 2017 at 2:50 pm


Visibility: N/A

Pressure: 29.95 "Hg

Humidity: 62%

Dew Point: 37 °F

Location of OsnabrückLocation

Past Weather in Osnabrück — Graph

°F

Osnabrück Temperature Yesterday

Maximum temperature yesterday: 50 °F (at 5:20 pm)
Minimum temperature yesterday: 43 °F (at 12:20 am)
Average temperature yesterday: 47 °F

High & Low Weather Summary for the Past Weeks

 TemperatureHumidityPressure
High55 °F (Feb 15, 2:50 pm)100% (Feb 16, 5:20 am)30.51 "Hg (Feb 16, 5:20 am)
Low27 °F (Feb 9, 10:50 pm)29% (Feb 14, 12:20 pm)29.86 "Hg (Feb 20, 8:20 pm)
Average37 °F82%30.25 "Hg
* Reported Feb 6 2:20 pm — Feb 21 2:20 pm, Osnabrück, Weather by CustomWeather, © 2017

Note: Actual official high and low records may vary slightly from our data, if they occured in-between our weather recording intervals... More about our weather records

Advertising

Osnabrück Weather History for the Previous 24 Hours

Scroll right to see more
 ConditionsComfort  
Time TempWeatherWind HumidityBarometerVisibility
2:20 pm
Tue, Feb 21
50 °FScattered clouds.18 mph62%29.95 "HgN/A
1:50 pm50 °FScattered clouds.18 mph67%29.95 "HgN/A
1:20 pm52 °FScattered clouds.18 mph62%29.95 "HgN/A
12:50 pm48 °FPartly sunny.14 mph76%29.95 "HgN/A
12:20 pm48 °FBroken clouds.15 mph76%29.95 "HgN/A
11:50 am48 °FScattered clouds.15 mph76%29.95 "HgN/A
11:20 am48 °FBroken clouds.15 mph76%29.95 "HgN/A
10:50 am46 °FBroken clouds.14 mph82%29.95 "HgN/A
10:20 am46 °FBroken clouds.15 mph87%29.92 "HgN/A
9:50 am46 °FPartly sunny.15 mph87%29.92 "HgN/A
9:20 am46 °FScattered clouds.15 mph87%29.92 "HgN/A
8:50 am46 °FBroken clouds.16 mph87%29.89 "HgN/A
8:20 am46 °FBroken clouds.14 mph87%29.89 "HgN/A
7:50 am46 °FPartly sunny.15 mph87%29.89 "HgN/A
7:20 am46 °FPartly cloudy.12 mph87%29.89 "HgN/A
6:50 am46 °FPartly cloudy.13 mph87%29.89 "HgN/A
6:20 am46 °FPartly cloudy.15 mph87%29.86 "HgN/A
5:50 am46 °FPassing clouds.14 mph87%29.86 "HgN/A
5:20 am46 °FPartly cloudy.14 mph93%29.86 "HgN/A
4:50 am48 °FPartly cloudy.13 mph87%29.86 "HgN/A
4:20 am48 °FPartly cloudy.14 mph87%29.86 "HgN/A
3:50 am48 °FPassing clouds.10 mph94%29.86 "HgN/A
3:20 am50 °FPassing clouds.14 mph88%29.86 "HgN/A
2:50 am50 °FPassing clouds.12 mph94%29.86 "HgN/A
2:20 am50 °FPassing clouds.12 mph94%29.86 "HgN/A
1:50 am50 °FPassing clouds.13 mph94%29.86 "HgN/A
1:20 am50 °FPassing clouds.9 mph94%29.86 "Hg5 mi
12:50 am50 °FDrizzle. Fog.13 mph100%29.86 "Hg3 mi
12:20 am50 °FDrizzle. Fog.12 mph100%29.86 "Hg3 mi
11:50 pm
Mon, Feb 20
50 °FDrizzle. Fog.13 mph100%29.86 "Hg2 mi
11:20 pm50 °FDrizzle. Fog.14 mph100%29.86 "Hg2 mi
10:50 pm50 °FDrizzle. Fog.13 mph100%29.86 "Hg3 mi
10:20 pm50 °FDrizzle. Fog.14 mph100%29.86 "Hg3 mi
9:50 pm50 °FDrizzle. Fog.15 mph100%29.86 "Hg3 mi
9:20 pm50 °FDrizzle. Fog.14 mph100%29.86 "Hg2 mi
8:50 pm50 °FDrizzle. Fog.15 mph100%29.86 "Hg2 mi
8:20 pm50 °FPassing clouds.16 mph100%29.86 "Hg3 mi
7:50 pm50 °FPassing clouds.15 mph94%29.89 "Hg4 mi
7:20 pm50 °FPassing clouds.15 mph94%29.89 "Hg4 mi
6:50 pm50 °FPassing clouds.17 mph94%29.89 "Hg4 mi
6:20 pm50 °FPassing clouds.15 mph94%29.89 "Hg6 mi
5:50 pm50 °FDrizzle. Partly sunny.16 mph94%29.89 "Hg6 mi
5:20 pm50 °FDrizzle. Partly sunny.16 mph94%29.89 "Hg5 mi
4:50 pm48 °FDrizzle. Partly sunny.14 mph100%29.89 "Hg2 mi
4:20 pm48 °FDrizzle. Partly sunny.16 mph100%29.89 "Hg2 mi
3:50 pm48 °FPartly sunny.16 mph100%29.89 "Hg6 mi
3:20 pm48 °FDrizzle. Partly sunny.18 mph94%29.89 "Hg4 mi
Weather by CustomWeather, © 2017

See weather overviewHow to use our weather pages